Location: Unspecified
(0.0000°N, 0.0000°E)
Time: 07:46:44
(UTC+00:00)

ITAMSAT 1 - Visible Passes

Search period start: 28 May 2023 00:00
Search period end: 07 June 2023 00:00
Orbit: 782 x 797 km, 98.8° (Epoch: 27 May)

Date Brightness Start Highest point End Pass type
(mag) Time Alt. Az. Time Alt. Az. Time Alt. Az.
28 May 9.0 20:10:41 30° N 20:10:41 30° N 20:13:18 10° N visible
29 May 9.2 19:40:35 21° NE 19:40:35 21° NE 19:42:55 10° NNE visible
30 May 9.7 19:10:30 10° ENE 19:10:30 10° ENE 19:10:43 10° ENE visible
30 May 9.9 20:51:12 21° NW 20:51:12 21° NW 20:53:00 10° NNW visible
31 May 9.1 20:21:07 31° N 20:21:07 31° N 20:23:43 10° N visible
01 Jun 9.0 19:51:01 26° NNE 19:51:01 26° NNE 19:53:38 10° NNE visible
02 Jun 9.5 19:20:56 14° NE 19:20:56 14° NE 19:22:22 10° NE visible
02 Jun 10.1 21:01:39 17° NW 21:01:39 17° NW 21:03:03 10° NW visible
03 Jun 9.2 20:31:34 29° NNW 20:31:34 29° NNW 20:34:03 10° NNW visible
04 Jun 8.9 20:01:28 30° NNE 20:01:28 30° NNE 20:04:15 10° N visible
05 Jun 9.3 19:31:23 18° NE 19:31:23 18° NE 19:33:29 10° NNE visible
05 Jun 10.4 21:12:05 14° WNW 21:12:05 14° WNW 21:12:57 10° NW visible
06 Jun 9.5 20:42:01 26° NW 20:42:01 26° NW 20:44:18 10° NNW visible
